GW0115 Weather Reports


time (UTC)temp
C
wind
direction
speed
KPH
gust
KPH
rain 1hr
cm
rain 24hr
cm
rain mn
cm
humidity
%
barometer
mb
20260831001607 20 0 0.0 3.2 0.00 0.00 0.00 79 1017.1
20260831000103 20 0 0.0 3.2 0.00 0.00 0.00 80 1016.7
20260830234558 20 0 0.0 0.0 0.00 0.00 0.00 79 1016.7
20260830233108 21 0 0.0 0.0 0.00 0.00 0.00 78 1016.6
20260830231609 21 0 0.0 3.2 0.00 0.00 0.00 77 1016.6
20260830230059 21 0 0.0 1.6 0.00 0.00 0.00 78 1016.6
20260830224628 21 0 0.0 0.0 0.00 0.00 0.00 80 1016.7
20260830223105 21 0 0.0 4.8 0.00 0.00 0.00 78 1016.4
20260830221607 21 0 0.0 0.0 0.00 0.00 0.00 80 1016.3
20260830220104 21 0 0.0 11.3 0.00 0.00 0.00 79 1016.3
20260830214606 21 0 0.0 0.0 0.00 0.00 0.00 83 1016.0
20260830213102 21 0 0.0 0.0 0.00 0.00 0.00 85 1016.0
20260830211559 21 0 0.0 0.0 0.00 0.00 0.00 83 1016.1
20260830204601 22 0 0.0 0.0 0.00 0.00 0.00 78 1016.1
20260830203059 22 0 0.0 0.0 0.00 0.00 0.00 75 1016.1
20260830201558 22 0 0.0 0.0 0.00 0.00 0.00 74 1016.2
20260830200105 22 0 0.0 0.0 0.00 0.00 0.00 76 1016.1
20260830194551 22 0 0.0 0.0 0.00 0.00 0.00 75 1016.4
20260830193057 22 0 0.0 0.0 0.00 0.00 0.00 74 1016.6
20260830191556 22 0 0.0 0.0 0.00 0.00 0.00 76 1016.8
20260830190053 22 0 0.0 0.0 0.00 0.00 0.00 75 1017.0
20260830184557 22 0 0.0 0.0 0.00 0.00 0.00 74 1017.1
20260830183057 22 0 0.0 0.0 0.00 0.00 0.00 77 1017.4
20260830181601 22 0 0.0 0.0 0.00 0.00 0.00 77 1017.6
20260830180103 22 0 0.0 0.0 0.00 0.00 0.00 78 1017.6
20260830174558 21 0 0.0 0.0 0.00 0.00 0.00 79 1017.6
20260830173055 21 0 0.0 0.0 0.00 0.00 0.00 78 1017.9
20260830171610 21 0 0.0 0.0 0.00 0.00 0.00 79 1018.2
20260830170101 21 0 0.0 0.0 0.00 0.00 0.00 79 1018.3
20260830164613 20 0 0.0 0.0 0.00 0.00 0.00 79 1018.2
20260830163105 20 0 0.0 0.0 0.00 0.00 0.00 81 1018.4
20260830161613 20 0 0.0 0.0 0.00 0.00 0.00 80 1018.6
20260830154559 19 0 0.0 11.3 0.00 0.00 0.00 79 1019.0
20260830153106 19 0 0.0 1.6 0.00 0.00 0.00 79 1019.1
20260830151607 19 0 0.0 3.2 0.00 0.00 0.00 78 1019.0
20260830150100 19 0 0.0 1.6 0.00 0.00 0.00 80 1019.2
20260830144555 18 0 0.0 17.7 0.00 0.00 0.00 79 1019.5
20260830143113 18 0 0.0 0.0 0.00 0.00 0.00 81 1019.2
20260830141556 19 0 0.0 0.0 0.00 0.00 0.00 78 1018.7
20260830140106 19 0 0.0 14.5 0.00 0.00 0.00 77 1019.3
20260830134559 19 0 0.0 1.6 0.00 0.00 0.00 78 1019.3
20260830133055 18 0 0.0 14.5 0.00 0.00 0.00 79 1019.2
20260830131606 18 258 0.0 9.7 0.00 0.00 0.00 79 1019.2
20260830130108 18 0 0.0 11.3 0.00 0.00 0.00 79 1019.2
20260830124558 18 0 0.0 8.0 0.00 0.00 0.00 80 1019.2
20260830123123 18 0 0.0 4.8 0.00 0.00 0.00 79 1019.1
20260830121605 18 0 0.0 0.0 0.00 0.00 0.00 80 1019.3
20260830120059 17 0 0.0 0.0 0.00 0.00 0.00 80 1019.3
20260830114606 17 0 0.0 0.0 0.00 0.00 0.00 79 1019.2
20260830113059 17 0 0.0 0.0 0.00 0.00 0.00 79 1019.4
20260830111557 17 0 0.0 1.6 0.00 0.00 0.00 79 1019.4
20260830110059 17 0 0.0 1.6 0.00 0.00 0.00 77 1019.5
20260830104604 17 0 0.0 0.0 0.00 0.00 0.00 78 1019.4
20260830103058 17 0 0.0 1.6 0.00 0.00 0.00 76 1019.3
20260830101600 17 0 0.0 0.0 0.00 0.00 0.00 76 1019.5
20260830100058 17 0 0.0 0.0 0.00 0.00 0.00 76 1019.4
20260830094600 17 0 0.0 4.8 0.00 0.00 0.00 75 1019.3
20260830093113 17 0 0.0 0.0 0.00 0.00 0.00 74 1019.4
20260830091606 17 0 0.0 0.0 0.00 0.00 0.00 74 1019.5
20260830090107 17 0 0.0 3.2 0.00 0.00 0.00 73 1019.5
20260830084620 17 0 0.0 3.2 0.00 0.00 0.00 75 1019.5
20260830083057 17 0 0.0 0.0 0.00 0.00 0.00 73 1019.5
20260830081609 17 0 0.0 0.0 0.00 0.00 0.00 75 1019.4
20260830080059 18 0 0.0 0.0 0.00 0.00 0.00 71 1019.4
20260830074609 18 0 0.0 0.0 0.00 0.00 0.00 70 1019.6
20260830073106 18 0 0.0 0.0 0.00 0.00 0.00 69 1019.3
20260830071602 18 0 0.0 0.0 0.00 0.00 0.00 68 1019.4
20260830070058 18 0 0.0 1.6 0.00 0.00 0.00 66 1019.4
20260830064559 18 0 0.0 0.0 0.00 0.00 0.00 68 1019.2
20260830063105 19 0 0.0 8.0 0.00 0.00 0.00 65 1019.4
20260830061558 19 0 0.0 6.4 0.00 0.00 0.00 66 1019.6
20260830060100 19 0 0.0 11.3 0.00 0.00 0.00 65 1019.6
20260830054556 18 0 0.0 1.6 0.00 0.00 0.00 66 1019.7
20260830053059 18 0 0.0 1.6 0.00 0.00 0.00 66 1019.7
20260830051559 18 0 0.0 4.8 0.00 0.00 0.00 67 1019.8
20260830050056 18 0 0.0 0.0 0.00 0.00 0.00 68 1019.9
20260830044604 19 0 0.0 1.6 0.00 0.00 0.00 67 1019.9
20260830043059 18 0 0.0 6.4 0.00 0.00 0.00 66 1019.9
20260830041610 17 0 0.0 4.8 0.00 0.00 0.00 70 1020.0
20260830040112 16 0 0.0 0.0 0.00 0.00 0.00 76 1020.1
20260830034600 16 0 0.0 0.0 0.00 0.00 0.00 81 1020.2
20260830033059 15 0 0.0 0.0 0.00 0.00 0.00 83 1020.1
20260830031554 15 0 0.0 0.0 0.00 0.00 0.00 83 1020.0
20260830030136 15 0 0.0 0.0 0.00 0.00 0.00 83 1020.0
20260830024557 15 0 0.0 0.0 0.00 0.00 0.00 83 1020.2
20260830023106 15 0 0.0 0.0 0.00 0.00 0.00 82 1020.2
20260830021601 16 0 0.0 0.0 0.00 0.00 0.00 81 1020.3
20260830020107 16 0 0.0 0.0 0.00 0.00 0.00 80 1020.4
20260830014602 16 0 0.0 0.0 0.00 0.00 0.00 79 1020.4
20260830013106 16 0 0.0 0.0 0.00 0.00 0.00 81 1020.3
20260830011557 16 0 0.0 0.0 0.00 0.00 0.00 80 1020.4
20260830010054 16 0 0.0 0.0 0.00 0.00 0.00 81 1020.2
20260830004600 17 0 0.0 0.0 0.00 0.00 0.00 79 1020.1
20260830003056 17 0 0.0 0.0 0.00 0.00 0.00 79 1019.9